Location: Bathurst
(33.4193°S, 149.5775°E)
Time: 23:40:12
(UTC+10:00)

Vanguard 3 - Pass Details

Date: 30 June 2021
Orbit: 508 x 3261 km, 33.4° (Epoch: 25 July)

Event Time Altitude Azimuth Distance (km) Brightness Sun altitude
Rises 17:19:39 0° 274° (W) 5,674 13.0 -3.7°
Reaches altitude 10° 17:22:50 10° 274° (W) 4,967 12.6 -4.3°
Maximum altitude 17:38:55 90° 292° (WNW) 3,110 10.1 -7.4°
Drops below altitude 10° 17:59:18 10° 89° (E) 6,066 11.0 -11.3°
Enters shadow 18:00:10 - 89° (E) 6,234 11.1 -11.5°
